| time (UTC) | temp C | wind direction | speed KPH | gust KPH | rain 1hr cm | rain 24hr cm | rain mn cm | humidity % | barometer mb |
| 20260504041852 | 6 | 271 | 1.6 | 6.4 | 0.00 | 0.00 | 0.00 | 60 | 1008.0 |
| 20260504041351 | 6 | 250 | 1.6 | 4.8 | 0.00 | 0.00 | 0.00 | 60 | 1008.0 |
| 20260504040851 | 6 | 0 | 3.2 | 6.4 | 0.00 | 0.00 | 0.00 | 59 | 1008.0 |
| 20260504040350 | 6 | 259 | 3.2 | 8.0 | 0.00 | 0.00 | 0.00 | 59 | 1008.0 |
| 20260504035850 | 6 | 256 | 3.2 | 8.0 | 0.00 | 0.00 | 0.00 | 59 | 1007.9 |
| 20260504035350 | 6 | 253 | 3.2 | 4.8 | 0.00 | 0.00 | 0.00 | 61 | 1007.8 |
| 20260504034850 | 6 | 239 | 3.2 | 6.4 | 0.00 | 0.00 | 0.00 | 61 | 1007.7 |
| 20260504034352 | 7 | 0 | 3.2 | 8.0 | 0.00 | 0.00 | 0.00 | 57 | 1007.8 |
| 20260504033351 | 7 | 248 | 6.4 | 9.7 | 0.00 | 0.00 | 0.00 | 56 | 1007.8 |
| 20260504032847 | 7 | 251 | 6.4 | 9.7 | 0.00 | 0.00 | 0.00 | 55 | 1007.8 |
| 20260504032347 | 7 | 254 | 4.8 | 9.7 | 0.00 | 0.00 | 0.00 | 55 | 1007.8 |
| 20260504031347 | 7 | 255 | 6.4 | 9.7 | 0.00 | 0.00 | 0.00 | 54 | 1007.8 |
| 20260504030847 | 7 | 268 | 6.4 | 9.7 | 0.00 | 0.00 | 0.00 | 54 | 1007.8 |
| 20260504030347 | 7 | 243 | 4.8 | 9.7 | 0.00 | 0.00 | 0.00 | 53 | 1007.7 |
| 20260504025848 | 7 | 256 | 4.8 | 9.7 | 0.00 | 0.00 | 0.00 | 53 | 1007.7 |
| 20260504025348 | 7 | 245 | 6.4 | 9.7 | 0.00 | 0.00 | 0.00 | 53 | 1007.6 |
| 20260504024348 | 7 | 252 | 4.8 | 9.7 | 0.00 | 0.00 | 0.00 | 53 | 1007.6 |
| 20260504023848 | 7 | 254 | 4.8 | 9.7 | 0.00 | 0.00 | 0.00 | 53 | 1007.6 |
| 20260504023344 | 7 | 263 | 4.8 | 9.7 | 0.00 | 0.00 | 0.00 | 53 | 1007.6 |
| 20260504022845 | 7 | 255 | 4.8 | 9.7 | 0.00 | 0.00 | 0.00 | 53 | 1007.6 |
| 20260504022345 | 8 | 245 | 4.8 | 9.7 | 0.00 | 0.00 | 0.00 | 53 | 1007.5 |
| 20260504021845 | 7 | 261 | 6.4 | 9.7 | 0.00 | 0.00 | 0.00 | 52 | 1007.5 |
| 20260504021344 | 7 | 258 | 4.8 | 8.0 | 0.00 | 0.00 | 0.00 | 54 | 1007.5 |
| 20260504020845 | 7 | 299 | 4.8 | 8.0 | 0.00 | 0.00 | 0.00 | 57 | 1007.5 |
| 20260504020346 | 7 | 292 | 3.2 | 6.4 | 0.00 | 0.00 | 0.00 | 57 | 1007.4 |
| 20260504015846 | 7 | 276 | 3.2 | 6.4 | 0.00 | 0.00 | 0.00 | 57 | 1007.4 |
| 20260504015347 | 8 | 261 | 3.2 | 6.4 | 0.00 | 0.00 | 0.00 | 56 | 1007.3 |
| 20260504014847 | 8 | 248 | 3.2 | 6.4 | 0.00 | 0.00 | 0.00 | 54 | 1007.4 |
| 20260504014347 | 8 | 236 | 3.2 | 6.4 | 0.00 | 0.00 | 0.00 | 50 | 1007.3 |
| 20260504013847 | 8 | 256 | 3.2 | 6.4 | 0.00 | 0.00 | 0.00 | 50 | 1007.3 |
| 20260504012843 | 8 | 252 | 3.2 | 6.4 | 0.00 | 0.00 | 0.00 | 49 | 1007.2 |
| 20260504012343 | 8 | 252 | 3.2 | 6.4 | 0.00 | 0.00 | 0.00 | 47 | 1007.2 |
| 20260504011841 | 8 | 231 | 1.6 | 6.4 | 0.00 | 0.00 | 0.00 | 46 | 1007.1 |
| 20260504010842 | 9 | 278 | 1.6 | 6.4 | 0.00 | 0.00 | 0.00 | 45 | 1007.0 |
| 20260504010341 | 9 | 0 | 3.2 | 6.4 | 0.00 | 0.00 | 0.00 | 45 | 1007.0 |
| 20260504005841 | 9 | 264 | 1.6 | 6.4 | 0.00 | 0.00 | 0.00 | 45 | 1006.9 |
| 20260504005341 | 9 | 232 | 1.6 | 6.4 | 0.00 | 0.00 | 0.00 | 44 | 1006.8 |
| 20260504004842 | 9 | 0 | 1.6 | 6.4 | 0.00 | 0.00 | 0.00 | 45 | 1006.7 |
| 20260504003342 | 10 | 0 | 1.6 | 8.0 | 0.00 | 0.00 | 0.00 | 44 | 1006.5 |
| 20260504002837 | 10 | 240 | 3.2 | 8.0 | 0.00 | 0.00 | 0.00 | 43 | 1006.5 |
| 20260504002338 | 10 | 226 | 1.6 | 8.0 | 0.00 | 0.00 | 0.00 | 43 | 1006.4 |
| 20260504001839 | 10 | 262 | 1.6 | 8.0 | 0.00 | 0.00 | 0.00 | 43 | 1006.4 |
| 20260504000841 | 10 | 0 | 3.2 | 9.7 | 0.00 | 0.00 | 0.00 | 42 | 1006.3 |
| 20260504000340 | 10 | 0 | 3.2 | 9.7 | 0.00 | 0.00 | 0.00 | 42 | 1006.3 |
| 20260503235841 | 10 | 227 | 3.2 | 9.7 | 0.00 | 0.00 | 0.00 | 42 | 1006.2 |
| 20260503235341 | 10 | 209 | 3.2 | 6.4 | 0.00 | 0.00 | 0.00 | 42 | 1006.1 |
| 20260503234836 | 10 | 232 | 3.2 | 9.7 | 0.00 | 0.00 | 0.00 | 42 | 1006.0 |
| 20260503234335 | 10 | 246 | 3.2 | 9.7 | 0.00 | 0.00 | 0.00 | 42 | 1006.0 |
| 20260503233330 | 11 | 192 | 1.6 | 9.7 | 0.00 | 0.00 | 0.00 | 42 | 1005.8 |
| 20260503232831 | 11 | 0 | 3.2 | 12.9 | 0.00 | 0.00 | 0.00 | 42 | 1005.7 |
| 20260503232332 | 11 | 251 | 3.2 | 12.9 | 0.00 | 0.00 | 0.00 | 42 | 1005.6 |
| 20260503231827 | 11 | 247 | 3.2 | 11.3 | 0.00 | 0.00 | 0.00 | 41 | 1005.6 |
| 20260503230828 | 11 | 205 | 4.8 | 14.5 | 0.00 | 0.00 | 0.00 | 41 | 1005.4 |
| 20260503230327 | 11 | 250 | 4.8 | 14.5 | 0.00 | 0.00 | 0.00 | 41 | 1005.4 |
| 20260503225828 | 11 | 260 | 3.2 | 11.3 | 0.00 | 0.00 | 0.00 | 41 | 1005.3 |
| 20260503225327 | 11 | 172 | 3.2 | 11.3 | 0.00 | 0.00 | 0.00 | 41 | 1005.3 |
| 20260503224327 | 11 | 186 | 3.2 | 11.3 | 0.00 | 0.00 | 0.00 | 41 | 1005.1 |
| 20260503223826 | 11 | 54 | 3.2 | 11.3 | 0.00 | 0.00 | 0.00 | 41 | 1005.1 |
| 20260503222825 | 11 | 60 | 3.2 | 11.3 | 0.00 | 0.00 | 0.00 | 42 | 1004.9 |
| 20260503221823 | 11 | 300 | 3.2 | 11.3 | 0.00 | 0.00 | 0.00 | 42 | 1004.8 |
| 20260503221323 | 11 | 10 | 3.2 | 11.3 | 0.00 | 0.00 | 0.00 | 42 | 1004.7 |
| 20260503220823 | 11 | 253 | 3.2 | 11.3 | 0.00 | 0.00 | 0.00 | 43 | 1004.5 |
| 20260503220324 | 11 | 297 | 3.2 | 12.9 | 0.00 | 0.00 | 0.00 | 41 | 1004.5 |
| 20260503215824 | 11 | 182 | 3.2 | 14.5 | 0.00 | 0.00 | 0.00 | 41 | 1004.5 |
| 20260503214822 | 12 | 145 | 4.8 | 14.5 | 0.00 | 0.00 | 0.00 | 42 | 1004.3 |
| 20260503214322 | 12 | 345 | 4.8 | 11.3 | 0.00 | 0.00 | 0.00 | 41 | 1004.2 |
| 20260503213821 | 12 | 81 | 4.8 | 14.5 | 0.00 | 0.00 | 0.00 | 41 | 1004.1 |
| 20260503212821 | 12 | 231 | 4.8 | 14.5 | 0.00 | 0.00 | 0.00 | 41 | 1004.1 |
| 20260503212322 | 12 | 216 | 3.2 | 12.9 | 0.00 | 0.00 | 0.00 | 42 | 1003.9 |
| 20260503211821 | 12 | 44 | 4.8 | 12.9 | 0.00 | 0.00 | 0.00 | 41 | 1003.8 |
| 20260503211321 | 12 | 187 | 3.2 | 11.3 | 0.00 | 0.00 | 0.00 | 40 | 1003.8 |
| 20260503210821 | 12 | 216 | 3.2 | 11.3 | 0.00 | 0.00 | 0.00 | 41 | 1003.7 |
| 20260503210321 | 12 | 216 | 3.2 | 11.3 | 0.00 | 0.00 | 0.00 | 42 | 1003.7 |
| 20260503205822 | 12 | 95 | 3.2 | 11.3 | 0.00 | 0.00 | 0.00 | 43 | 1003.6 |
| 20260503205322 | 12 | 209 | 3.2 | 11.3 | 0.00 | 0.00 | 0.00 | 42 | 1003.5 |
| 20260503204822 | 12 | 215 | 3.2 | 9.7 | 0.00 | 0.00 | 0.00 | 42 | 1003.6 |
| 20260503204321 | 12 | 60 | 3.2 | 9.7 | 0.00 | 0.00 | 0.00 | 43 | 1003.5 |
| 20260503203818 | 12 | 142 | 3.2 | 9.7 | 0.00 | 0.00 | 0.00 | 42 | 1003.5 |
| 20260503203319 | 12 | 235 | 3.2 | 11.3 | 0.00 | 0.00 | 0.00 | 45 | 1003.5 |
| 20260503202319 | 12 | 80 | 3.2 | 11.3 | 0.00 | 0.00 | 0.00 | 45 | 1003.5 |
| 20260503201815 | 12 | 25 | 3.2 | 12.9 | 0.00 | 0.00 | 0.00 | 45 | 1003.4 |
| 20260503201314 | 12 | 135 | 3.2 | 12.9 | 0.00 | 0.00 | 0.00 | 44 | 1003.3 |
| 20260503200815 | 12 | 152 | 3.2 | 11.3 | 0.00 | 0.00 | 0.00 | 44 | 1003.4 |
| 20260503200317 | 12 | 184 | 3.2 | 11.3 | 0.00 | 0.00 | 0.00 | 45 | 1003.3 |
| 20260503195816 | 12 | 111 | 4.8 | 14.5 | 0.00 | 0.00 | 0.00 | 43 | 1003.2 |
| 20260503195313 | 12 | 238 | 4.8 | 14.5 | 0.00 | 0.00 | 0.00 | 43 | 1003.3 |
| 20260503194811 | 13 | 146 | 3.2 | 14.5 | 0.00 | 0.00 | 0.00 | 44 | 1003.2 |
| 20260503194312 | 13 | 117 | 3.2 | 8.0 | 0.00 | 0.00 | 0.00 | 44 | 1003.4 |
| 20260503193811 | 13 | 0 | 3.2 | 9.7 | 0.00 | 0.00 | 0.00 | 45 | 1003.4 |
| 20260503193312 | 13 | 141 | 3.2 | 14.5 | 0.00 | 0.00 | 0.00 | 45 | 1003.4 |
| 20260503192806 | 12 | 81 | 4.8 | 16.1 | 0.00 | 0.00 | 0.00 | 44 | 1003.4 |
| 20260503192307 | 12 | 108 | 4.8 | 16.1 | 0.00 | 0.00 | 0.00 | 45 | 1003.4 |
| 20260503191806 | 12 | 160 | 3.2 | 9.7 | 0.00 | 0.00 | 0.00 | 47 | 1003.5 |
| 20260503191307 | 12 | 227 | 3.2 | 9.7 | 0.00 | 0.00 | 0.00 | 46 | 1003.5 |
| 20260503190807 | 12 | 4 | 3.2 | 9.7 | 0.00 | 0.00 | 0.00 | 49 | 1003.6 |
| 20260503190307 | 12 | 289 | 3.2 | 9.7 | 0.00 | 0.00 | 0.00 | 50 | 1003.5 |
| 20260503185807 | 11 | 196 | 3.2 | 9.7 | 0.00 | 0.00 | 0.00 | 51 | 1003.6 |
| 20260503185305 | 11 | 226 | 3.2 | 9.7 | 0.00 | 0.00 | 0.00 | 51 | 1003.6 |
| 20260503184306 | 11 | 331 | 3.2 | 9.7 | 0.00 | 0.03 | 0.00 | 52 | 1003.6 |
| 20260503183807 | 11 | 311 | 3.2 | 12.9 | 0.00 | 0.03 | 0.00 | 52 | 1003.6 |
| 20260503183306 | 11 | 238 | 3.2 | 12.9 | 0.00 | 0.03 | 0.00 | 52 | 1003.6 |
| 20260503182804 | 11 | 0 | 3.2 | 12.9 | 0.00 | 0.03 | 0.00 | 52 | 1003.6 |
| 20260503182305 | 11 | 259 | 3.2 | 12.9 | 0.00 | 0.05 | 0.00 | 50 | 1003.5 |
| 20260503181803 | 12 | 0 | 3.2 | 16.1 | 0.00 | 0.05 | 0.00 | 49 | 1003.6 |
| 20260503181304 | 12 | 217 | 3.2 | 16.1 | 0.00 | 0.05 | 0.00 | 49 | 1003.6 |
| 20260503180804 | 11 | 2 | 3.2 | 14.5 | 0.00 | 0.08 | 0.00 | 49 | 1003.5 |
| 20260503175802 | 11 | 83 | 3.2 | 9.7 | 0.00 | 0.08 | 0.00 | 48 | 1003.5 |
| 20260503175301 | 11 | 145 | 3.2 | 12.9 | 0.00 | 0.08 | 0.00 | 49 | 1003.6 |
| 20260503174801 | 11 | 20 | 3.2 | 12.9 | 0.00 | 0.08 | 0.00 | 48 | 1003.5 |
| 20260503174302 | 11 | 23 | 3.2 | 12.9 | 0.00 | 0.08 | 0.00 | 50 | 1003.6 |
| 20260503173800 | 10 | 201 | 3.2 | 12.9 | 0.00 | 0.08 | 0.00 | 53 | 1003.6 |
| 20260503173301 | 10 | 316 | 3.2 | 9.7 | 0.00 | 0.08 | 0.00 | 53 | 1003.6 |
| 20260503172758 | 10 | 38 | 3.2 | 11.3 | 0.00 | 0.08 | 0.00 | 57 | 1003.6 |
| 20260503172257 | 10 | 345 | 3.2 | 11.3 | 0.00 | 0.08 | 0.00 | 56 | 1003.6 |
| 20260503171756 | 10 | 176 | 3.2 | 9.7 | 0.00 | 0.08 | 0.00 | 56 | 1003.6 |
| 20260503171257 | 10 | 102 | 3.2 | 9.7 | 0.00 | 0.08 | 0.00 | 56 | 1003.6 |
| 20260503170757 | 10 | 311 | 3.2 | 9.7 | 0.00 | 0.08 | 0.00 | 57 | 1003.7 |
| 20260503170257 | 10 | 0 | 3.2 | 12.9 | 0.00 | 0.08 | 0.00 | 57 | 1003.6 |
| 20260503150735 | 8 | 56 | 3.2 | 12.9 | 0.00 | 0.10 | 0.00 | 72 | 1003.5 |
| 20260503150235 | 8 | 59 | 3.2 | 12.9 | 0.00 | 0.10 | 0.00 | 72 | 1003.6 |
| 20260503140229 | 8 | 235 | 3.2 | 9.7 | 0.00 | 0.10 | 0.00 | 79 | 1003.4 |
| 20260503131219 | 7 | 41 | 1.6 | 9.7 | 0.00 | 0.10 | 0.00 | 76 | 1003.6 |
| 20260503130718 | 7 | 194 | 3.2 | 9.7 | 0.00 | 0.13 | 0.00 | 76 | 1003.6 |
| 20260503130219 | 7 | 220 | 3.2 | 9.7 | 0.00 | 0.13 | 0.00 | 76 | 1003.6 |
| 20260503120213 | 7 | 238 | 3.2 | 11.3 | 0.00 | 0.13 | 0.00 | 74 | 1004.1 |
| 20260503110708 | 7 | 282 | 1.6 | 6.4 | 0.00 | 0.13 | 0.00 | 77 | 1004.3 |
| 20260503110208 | 7 | 244 | 1.6 | 6.4 | 0.00 | 0.13 | 0.00 | 76 | 1004.3 |
| 20260503090158 | 7 | 253 | 1.6 | 4.8 | 0.00 | 0.15 | 0.00 | 77 | 1004.7 |
| 20260503081151 | 8 | 27 | 1.6 | 8.0 | 0.00 | 0.15 | 0.00 | 76 | 1005.1 |
| 20260503080654 | 8 | 356 | 1.6 | 9.7 | 0.00 | 0.15 | 0.00 | 76 | 1005.3 |
| 20260503080148 | 8 | 299 | 1.6 | 9.7 | 0.00 | 0.15 | 0.00 | 76 | 1005.5 |
| 20260503072642 | 8 | 0 | 1.6 | 8.0 | 0.00 | 0.15 | 0.00 | 77 | 1005.7 |
| 20260503072143 | 8 | 0 | 1.6 | 8.0 | 0.00 | 0.15 | 0.00 | 78 | 1005.6 |
| 20260503071643 | 8 | 112 | 1.6 | 4.8 | 0.00 | 0.15 | 0.00 | 78 | 1005.7 |
| 20260503070137 | 8 | 219 | 1.6 | 6.4 | 0.00 | 0.15 | 0.00 | 77 | 1006.0 |
| 20260503060136 | 9 | 0 | 1.6 | 8.0 | 0.00 | 0.15 | 0.00 | 74 | 1006.6 |
| 20260503054633 | 9 | 150 | 1.6 | 6.4 | 0.00 | 0.15 | 0.00 | 72 | 1006.6 |
| 20260503054134 | 10 | 0 | 1.6 | 6.4 | 0.00 | 0.15 | 0.00 | 72 | 1006.6 |
| 20260503053631 | 10 | 307 | 1.6 | 8.0 | 0.00 | 0.15 | 0.00 | 73 | 1006.6 |
| 20260503053133 | 10 | 33 | 1.6 | 8.0 | 0.00 | 0.15 | 0.00 | 74 | 1006.6 |
| 20260503052631 | 10 | 282 | 1.6 | 8.0 | 0.00 | 0.15 | 0.00 | 75 | 1006.7 |
| 20260503052131 | 10 | 0 | 1.6 | 4.8 | 0.00 | 0.15 | 0.00 | 76 | 1006.7 |
| 20260503051631 | 10 | 0 | 1.6 | 6.4 | 0.00 | 0.15 | 0.00 | 74 | 1006.6 |
| 20260503051132 | 10 | 43 | 1.6 | 6.4 | 0.00 | 0.15 | 0.00 | 73 | 1006.8 |
| 20260503050631 | 10 | 274 | 1.6 | 6.4 | 0.00 | 0.15 | 0.00 | 72 | 1007.0 |
| 20260503050133 | 10 | 326 | 1.6 | 6.4 | 0.00 | 0.15 | 0.00 | 72 | 1007.1 |
| 20260503045132 | 10 | 2 | 1.6 | 9.7 | 0.00 | 0.15 | 0.00 | 73 | 1007.2 |
| 20260503044129 | 10 | 263 | 1.6 | 6.4 | 0.00 | 0.15 | 0.00 | 78 | 1007.2 |
| 20260503043629 | 10 | 0 | 1.6 | 6.4 | 0.00 | 0.15 | 0.00 | 78 | 1007.3 |
| 20260503043129 | 10 | 0 | 1.6 | 6.4 | 0.00 | 0.15 | 0.00 | 81 | 1007.3 |
| 20260503042630 | 10 | 259 | 1.6 | 6.4 | 0.00 | 0.15 | 0.00 | 82 | 1007.6 |